Theta_e
311 312 315 316 318 322 321 321 319 316 317 315 314 317 317 316 317 316 316 317 315 312 313 314 314 320 330 333 332 331 333 333 334 335 335 336 335 335 336 337 339 339 339 338 337 337 332 331 333 333 331 330 328 328 329 330 330 331 331 331 331 330 329 327 326 325 320 315 319 321 321 319 320 322 323 322 322 322 321 320 318 319 322 325 325 326
311 313 317 319 320 321 321 321 319 316 317 317 317 317 315 317 317 315 318 319 318 320 316 316 317 318 324 328 327 327 330 332 333 333 334 335 334 335 336 336 338 338 338 339 339 336 333 333 334 332 331 329 327 328 330 329 330 330 329 329 329 329 328 326 324 321 315 314 318 319 317 319 320 320 320 319 320 321 320 318 316 317 322 324 324 325
313 316 318 317 317 315 316 321 322 319 319 318 318 316 316 319 317 318 325 323 322 324 318 316 317 317 321 325 324 327 329 330 332 334 334 334 334 334 334 336 337 337 337 337 337 336 335 334 332 331 329 328 326 329 331 330 330 330 329 329 329 328 326 322 319 315 312 315 319 318 316 317 317 316 315 313 312 313 313 312 311 315 320 322 321 322
314 319 318 316 317 315 316 322 322 319 319 320 317 314 317 318 315 318 327 327 324 324 321 321 322 322 325 324 320 323 324 326 332 334 333 334 334 334 334 334 334 334 335 335 334 334 333 331 330 329 327 327 329 330 331 330 330 329 329 328 326 323 319 315 313 312 312 315 317 317 316 316 315 315 313 310 307 308 308 308 308 310 313 316 317 317
314 316 314 316 321 319 317 319 320 317 319 327 324 317 319 320 316 316 321 327 331 326 323 328 326 323 325 322 319 321 322 325 330 331 332 333 333 333 333 333 332 332 333 334 333 331 331 330 330 329 327 328 329 330 330 329 329 328 328 327 322 317 314 312 312 312 313 314 315 316 316 316 316 315 313 310 308 308 308 307 307 308 309 313 315 316
314 313 311 314 319 319 317 319 322 320 319 325 328 325 323 322 321 320 323 330 333 325 320 321 320 320 326 326 320 321 326 327 327 329 330 331 332 332 333 333 332 332 331 332 332 331 330 330 330 328 328 329 329 329 329 329 329 328 328 327 319 312 312 312 312 313 315 315 315 314 314 314 314 312 310 308 307 308 308 307 307 307 309 312 315 317
316 314 314 315 317 319 318 318 320 321 319 319 325 329 325 322 321 322 327 328 325 322 320 322 323 323 328 327 319 320 328 330 327 328 328 328 330 331 332 333 332 333 332 330 331 331 330 330 331 330 329 330 329 329 329 329 329 329 329 325 316 311 313 312 313 315 316 316 315 315 314 313 313 311 308 307 307 307 307 307 307 308 311 313 314 315
317 317 318 317 317 318 318 319 320 320 320 319 323 326 324 324 323 326 328 324 322 321 322 330 331 324 325 326 321 320 325 329 327 328 327 326 328 329 331 332 332 332 332 330 329 329 329 330 332 332 331 331 330 330 331 330 330 329 327 321 314 312 312 312 315 317 317 316 316 316 316 315 316 313 309 307 307 307 306 306 306 308 312 315 315 315
318 317 320 319 317 316 318 324 323 319 318 322 324 322 321 323 326 331 329 326 327 320 319 330 328 320 327 334 328 321 322 326 326 327 327 324 325 327 330 331 331 331 331 330 328 326 327 328 331 332 331 331 331 331 331 331 330 327 322 316 313 313 312 313 316 318 318 318 317 318 318 318 319 316 310 307 307 306 306 307 306 307 310 313 315 316
317 314 316 318 318 317 321 324 322 319 319 321 321 319 319 323 326 331 330 328 331 323 319 328 324 317 328 340 335 324 319 322 324 325 323 322 324 326 328 330 331 331 331 330 328 326 326 329 332 332 332 332 331 331 331 330 331 327 319 315 313 312 311 314 317 319 320 320 320 320 319 319 319 315 310 307 307 307 306 306 306 306 307 310 312 314
315 313 314 316 315 318 322 319 315 316 316 316 320 319 318 323 328 335 335 329 327 324 324 330 327 319 323 336 337 326 318 319 324 325 321 319 322 325 327 329 331 330 330 329 328 327 328 330 333 333 332 332 331 331 331 331 331 328 320 316 315 314 316 319 321 322 321 321 321 320 319 319 316 312 309 308 307 307 306 306 306 306 306 307 308 309
317 315 315 315 314 314 316 315 311 312 314 316 322 321 318 322 326 332 334 328 324 326 327 329 327 318 320 328 329 324 321 319 321 324 325 322 320 323 326 328 330 330 329 328 328 328 330 331 332 332 332 332 332 332 331 331 331 329 326 322 318 318 321 320 320 321 322 322 321 321 319 318 314 309 308 308 307 307 307 306 306 306 306 306 306 307
320 320 317 314 314 313 313 315 311 311 316 318 321 322 320 321 322 325 328 325 326 325 323 326 323 317 324 327 320 319 320 317 317 319 322 322 321 323 327 328 329 330 329 328 328 329 331 332 332 331 331 331 331 332 331 331 331 330 329 326 321 319 318 315 314 316 321 323 321 321 320 316 311 309 308 308 308 307 306 306 306 306 306 306 306 306
319 322 318 314 315 313 313 317 314 314 316 316 319 321 320 322 321 321 322 320 322 323 321 324 321 319 327 325 318 319 318 318 320 320 320 322 323 325 326 328 328 328 328 329 330 331 330 331 331 330 331 330 331 331 331 331 331 330 330 328 325 321 317 315 312 314 320 324 322 322 321 314 309 308 308 308 308 307 306 306 306 306 306 306 306 306
319 320 320 317 315 313 314 316 318 319 317 314 317 318 318 325 324 320 322 323 322 322 321 319 318 323 326 320 318 320 320 321 323 323 323 324 324 326 326 326 327 327 328 328 329 330 330 330 330 329 330 330 330 330 331 331 331 331 331 330 329 325 320 318 315 314 319 323 323 323 319 312 308 308 309 308 308 307 307 306 307 306 306 306 306 306
314 318 322 318 312 311 312 312 314 318 316 312 312 314 315 322 326 321 318 324 327 324 321 318 319 324 324 319 318 320 322 325 323 323 324 324 325 326 325 325 326 325 326 326 327 328 329 329 329 329 329 329 329 329 331 332 331 332 331 332 332 328 324 323 320 318 320 323 324 321 314 311 311 309 308 308 308 307 307 307 307 307 306 306 306 306
314 319 323 316 311 312 311 311 312 311 314 314 312 314 316 315 324 324 316 320 327 323 321 320 319 320 320 320 320 321 327 326 324 324 323 322 325 325 325 325 325 325 325 326 328 327 328 328 328 329 329 328 329 329 332 332 332 332 332 333 332 326 324 324 324 324 323 324 323 316 310 313 315 311 308 309 309 308 308 307 307 307 307 307 306 306
319 321 320 315 313 313 309 310 312 309 312 316 313 316 316 312 320 327 322 322 322 320 323 320 318 320 323 324 322 321 325 324 324 326 323 322 323 323 324 323 322 325 325 326 327 327 328 328 327 328 328 328 328 329 331 332 333 333 333 334 331 326 325 324 324 324 324 324 321 312 311 315 315 312 310 311 310 308 308 308 307 307 307 307 307 307
319 319 319 316 313 313 312 314 318 313 310 313 312 313 314 317 321 320 320 323 319 318 321 318 318 320 322 326 323 319 322 324 324 325 325 324 323 321 323 323 322 325 325 325 327 327 327 327 327 328 327 327 328 328 329 330 332 332 333 333 330 328 327 325 323 324 324 323 318 313 314 315 315 314 312 310 310 309 309 309 309 308 309 308 307 307
320 317 317 319 313 312 316 319 320 318 314 313 314 313 316 324 325 318 318 322 320 319 319 318 320 323 325 327 325 321 323 325 325 325 326 324 322 321 322 323 323 324 324 325 325 325 326 326 326 327 326 327 328 328 329 328 329 329 330 330 328 327 327 326 324 324 325 324 320 317 314 313 315 316 313 310 311 311 311 311 311 311 312 312 310 309
321 313 316 324 318 312 317 317 314 315 314 314 315 316 318 319 317 315 316 317 319 323 324 321 320 325 332 330 324 324 324 323 324 326 325 322 322 322 323 323 324 323 323 324 322 323 325 325 325 326 327 328 328 329 329 328 328 328 327 327 327 326 326 326 325 325 325 325 324 321 315 313 317 317 313 312 312 311 311 313 314 314 315 316 315 314
318 317 324 329 320 314 315 313 311 312 311 312 313 314 318 319 316 316 316 314 319 323 324 323 321 325 333 330 325 325 323 320 322 323 322 322 322 323 324 324 324 324 324 323 323 323 324 324 325 325 326 327 327 328 327 327 328 327 327 327 327 326 326 326 326 326 326 325 325 322 315 314 319 319 315 314 312 310 311 315 317 316 317 317 317 316
320 326 327 322 315 313 312 309 310 310 310 314 313 312 318 322 320 324 324 320 318 315 316 322 323 325 330 329 324 321 318 318 320 320 321 321 322 323 323 325 324 324 324 324 324 324 324 324 324 323 324 324 325 325 325 325 325 325 325 325 325 325 325 326 326 326 326 325 323 319 316 317 320 319 317 316 315 311 311 316 319 319 319 319 318 318
321 322 318 318 317 316 315 312 311 311 312 315 313 313 316 314 317 325 328 327 322 315 316 319 319 324 328 323 318 315 315 318 319 320 320 320 321 322 322 324 324 324 324 324 324 324 324 324 324 324 324 323 324 324 324 324 324 323 323 324 324 325 325 325 326 326 326 326 322 317 315 317 319 319 319 317 317 314 312 316 320 319 320 320 319 319
316 316 318 319 315 313 316 319 318 316 314 313 312 313 314 313 318 320 319 326 324 315 319 323 320 324 324 319 317 317 318 319 317 318 320 320 321 321 321 322 322 322 323 323 324 324 324 324 324 324 324 323 324 323 323 323 323 323 323 323 324 324 324 325 325 325 325 325 322 319 316 314 315 319 319 318 318 316 313 316 318 319 319 319 319 319
317 319 325 326 319 317 319 322 323 318 313 312 313 313 314 315 318 315 316 327 324 312 317 326 324 324 321 318 319 319 320 320 317 317 320 321 321 321 321 321 320 320 320 320 321 321 322 323 324 324 324 323 324 323 323 323 323 323 323 323 323 323 324 324 324 324 325 324 323 322 318 314 314 318 320 318 318 316 314 314 316 319 318 317 318 319
322 320 323 328 325 322 321 318 316 315 313 312 311 312 315 317 320 320 321 326 324 316 317 319 320 320 317 316 318 317 319 320 317 316 318 320 321 321 321 320 319 318 317 315 315 316 318 321 322 322 322 322 322 323 323 323 323 323 323 323 323 322 323 324 324 323 323 323 322 322 319 317 317 319 319 317 318 318 318 315 315 318 319 318 318 318
330 319 315 320 317 313 315 313 309 310 311 310 310 311 314 318 323 325 319 315 316 318 317 315 317 318 313 312 313 314 316 319 315 313 315 317 318 319 320 320 318 317 315 313 313 312 313 315 315 316 317 317 320 321 322 323 323 324 324 323 323 323 322 323 323 321 321 321 321 321 320 319 318 317 317 317 318 319 320 317 317 319 319 318 318 318
330 319 311 314 312 309 310 309 309 310 308 308 312 313 313 317 322 320 314 312 313 317 318 315 315 315 310 309 311 309 310 312 309 309 312 314 315 316 317 318 317 317 316 314 314 313 312 311 311 311 312 313 315 315 316 317 317 319 321 323 323 322 322 322 321 320 320 320 320 320 320 319 318 317 317 318 317 318 318 318 318 318 317 317 317 317
320 317 312 314 313 309 308 308 309 311 309 309 312 312 312 314 316 316 312 311 314 315 313 312 312 311 307 307 309 307 306 307 307 308 311 311 312 313 314 314 315 315 316 316 316 315 313 312 312 312 311 311 311 311 310 310 310 311 314 317 320 321 321 321 321 321 321 321 321 321 320 320 319 319 319 318 317 317 318 319 319 318 318 317 317 317
315 313 314 321 318 309 308 309 309 311 311 311 312 312 313 313 313 315 313 311 313 311 308 310 313 310 306 305 306 305 305 306 306 307 308 309 311 312 312 313 313 313 313 314 314 315 314 313 313 312 312 311 311 311 310 310 309 308 308 310 314 318 320 321 321 321 321 320 320 320 320 320 319 319 319 319 318 318 318 318 317 317 316 315 315 316
318 313 314 324 320 310 309 309 309 312 313 313 314 313 313 314 312 312 310 309 311 311 310 313 313 309 306 305 304 304 304 304 304 304 306 308 309 311 311 312 312 313 313 312 311 313 314 313 313 312 312 312 312 311 311 309 309 308 307 307 309 312 317 319 319 319 317 315 315 316 318 317 317 316 315 315 314 314 313 313 313 313 313 314 314 316
321 317 313 319 318 311 310 311 313 316 313 313 313 310 309 310 309 308 306 305 306 310 313 313 309 305 305 304 304 304 303 302 303 303 304 306 307 309 310 310 311 311 312 312 311 310 311 311 311 311 311 311 312 311 311 310 309 308 307 307 307 308 310 312 313 314 313 311 309 310 312 311 311 312 312 311 311 311 311 312 313 313 314 315 315 316
319 321 316 317 317 311 310 314 316 316 313 310 309 307 307 308 307 307 306 303 304 306 307 307 305 304 304 304 304 304 302 302 302 302 303 304 306 307 309 309 310 310 309 310 310 309 308 308 308 308 308 309 309 310 310 309 309 309 308 308 307 307 308 307 306 308 309 309 308 307 307 308 309 309 310 309 309 310 310 311 311 312 312 313 314 315
317 318 314 317 319 312 310 316 316 312 310 308 305 305 306 305 303 304 303 302 303 305 304 304 304 303 303 303 302 302 301 301 302 302 302 303 303 304 305 306 308 308 308 309 309 309 308 308 307 307 307 307 307 308 308 308 307 307 308 308 307 307 307 306 304 305 307 307 307 307 306 306 307 307 307 307 307 307 308 308 309 309 310 310 311 311
317 316 312 312 313 309 310 315 314 308 306 306 307 306 305 305 306 306 305 303 303 304 304 304 303 301 300 302 302 302 301 301 300 300 301 301 301 302 302 302 304 306 306 306 306 306 307 307 307 308 308 307 307 307 306 306 306 306 306 307 307 307 307 306 306 306 306 306 306 306 306 306 306 306 306 306 307 307 307 308 308 308 308 307 307 307
313 316 313 309 309 311 312 310 307 306 305 306 308 306 304 305 307 307 306 303 301 301 302 302 303 300 299 301 302 302 302 302 300 299 299 300 300 300 300 300 301 303 303 302 302 303 303 304 305 307 307 307 307 307 307 306 306 306 306 306 307 307 307 307 307 306 306 307 307 307 307 306 306 306 306 306 307 307 307 307 307 306 304 303 303 303
309 311 311 309 308 311 313 308 305 307 309 308 309 306 303 302 302 303 306 304 301 299 299 300 301 299 298 300 301 301 304 306 303 300 298 299 299 299 300 300 300 300 301 301 301 301 302 302 302 304 304 304 304 306 306 306 306 306 306 305 306 306 306 306 307 306 306 307 307 307 307 306 306 306 306 306 307 307 306 305 305 304 303 302 302 301
308 310 313 312 308 308 311 310 308 308 308 307 306 304 302 301 300 302 307 306 300 298 298 298 298 297 298 299 299 300 304 306 304 300 298 298 299 299 299 300 300 300 300 300 300 301 301 301 301 301 302 302 302 303 303 304 305 305 306 306 306 306 305 305 306 306 306 306 306 306 306 306 306 306 306 306 306 306 306 305 305 306 305 305 304 303
310 312 313 313 310 309 310 310 308 306 305 304 305 303 300 300 300 304 310 307 299 297 298 298 297 298 298 298 298 299 302 303 301 299 298 298 299 299 299 300 300 300 300 300 300 300 300 301 301 301 301 301 301 301 301 302 303 303 303 304 305 306 306 306 306 307 307 306 306 306 306 306 306 306 306 306 306 306 307 307 307 306 306 305 305 304
310 311 310 308 309 309 310 308 305 305 304 303 303 301 299 300 303 306 308 303 298 297 298 298 298 298 298 298 299 298 299 299 298 299 298 298 299 299 299 299 299 299 299 299 300 300 300 300 300 301 301 301 301 300 300 301 301 302 302 302 303 304 304 305 306 306 306 305 305 305 305 306 306 306 306 306 306 306 306 306 306 305 304 305 305 306
307 308 307 306 307 307 307 305 304 305 303 301 301 300 299 303 306 304 302 299 297 298 298 298 299 299 298 298 299 298 298 298 298 298 298 298 298 298 298 299 299 299 299 299 299 299 298 298 299 299 299 300 300 300 300 300 301 301 302 302 302 302 303 303 304 304 304 304 304 304 304 304 305 305 305 305 305 305 306 305 305 304 304 305 306 306
303 306 306 304 304 305 305 304 305 305 301 299 301 301 300 302 302 299 298 298 298 298 298 298 299 298 298 298 298 298 298 298 298 298 298 298 298 298 298 298 298 298 298 298 298 298 298 298 298 298 298 298 299 300 300 300 300 300 301 301 301 301 302 302 302 303 303 303 303 303 303 303 304 304 304 304 305 305 305 305 305 304 305 305 305 305
302 305 306 304 303 305 305 303 302 301 298 298 300 300 299 299 299 298 298 299 298 298 298 298 299 298 298 299 298 298 298 298 298 298 298 298 298 298 298 298 298 298 298 298 298 298 298 298 298 298 298 298 298 299 299 299 299 299 300 300 300 301 301 301 301 302 302 302 303 303 304 303 304 304 304 305 305 305 305 305 305 305 304 304 305 304
300 300 302 301 300 301 302 301 299 299 298 298 299 298 298 298 298 298 299 298 298 299 298 298 299 298 298 298 298 298 298 298 298 298 298 298 298 298 298 297 297 298 297 297 297 297 297 298 298 298 298 298 298 298 298 299 299 299 299 299 300 300 301 301 301 301 301 302 302 303 303 303 303 303 303 304 305 305 305 305 305 305 305 305 304 304
297 297 299 299 298 298 299 298 298 298 298 298 298 298 298 299 298 298 299 298 298 299 298 298 298 298 298 298 298 298 298 298 298 298 298 298 298 298 298 298 297 298 297 297 297 297 297 297 297 297 297 298 298 298 298 298 299 299 299 299 299 300 300 301 301 301 301 301 302 302 302 302 302 302 303 303 304 304 304 304 305 305 305 304 303 303
298 298 298 299 300 300 300 297 297 298 298 298 298 298 298 299 298 298 298 298 298 298 298 298 298 298 298 298 298 298 298 298 298 298 297 297 297 297 297 297 297 297 297 297 297 297 297 297 297 297 297 297 297 298 298 298 298 298 298 298 298 299 299 300 300 301 301 302 302 302 302 302 302 303 303 303 304 304 304 304 304 304 304 303 303 304
298 298 299 299 301 301 299 297 297 298 297 297 298 298 298 298 298 298 298 298 298 298 298 298 298 297 297 297 297 297 297 297 297 297 296 296 296 296 296 296 296 296 297 297 297 297 298 298 298 298 297 297 297 297 297 297 298 298 298 298 298 298 298 299 299 300 300 301 301 302 302 302 302 303 303 303 303 303 303 303 303 303 302 302 303 304
298 299 297 297 299 299 298 297 297 297 297 297 298 298 298 298 298 297 297 297 297 297 297 296 297 296 296 296 296 296 296 296 296 295 295 295 295 294 294 294 294 294 295 295 296 296 297 297 298 298 298 297 297 297 297 297 297 297 298 298 298 298 297 297 298 299 299 300 300 301 301 301 302 302 302 302 302 302 302 303 303 303 303 303 303 303
299 299 297 298 301 301 300 298 297 297 297 297 297 297 297 297 297 297 297 296 296 296 296 295 295 295 295 294 294 294 294 294 294 294 293 293 293 293 292 292 292 293 293 294 294 294 295 296 296 297 297 297 297 297 297 297 297 297 297 297 298 297 297 297 298 299 299 299 299 300 300 300 301 301 301 302 302 302 302 302 303 303 303 303 302 302
298 298 299 301 303 301 300 298 297 297 298 297 297 297 297 297 297 296 296 296 295 295 295 295 294 294 294 293 293 293 292 292 292 292 292 292 291 291 291 290 291 291 292 292 292 293 293 294 294 295 296 296 297 297 297 297 297 297 297 297 297 297 297 297 298 298 299 299 299 299 299 299 299 300 300 301 301 302 302 302 302 302 302 301 301 300
Wind_Speed
2 1 2 4 6 7 7 7 7 4 5 3 3 3 4 5 5 6 6 7 2 4 1 4 6 4 8 8 8 15 17 12 11 13 17 20 22 25 27 30 33 34 33 33 32 32 31 30 30 28 29 29 25 23 25 27 26 24 21 21 21 19 15 13 13 13 12 12 12 11 11 10 8 6 5 5 5 4 4 5 6 7 6 4 3 4
3 2 6 9 10 8 5 4 4 1 2 2 3 3 4 4 6 7 4 7 2 5 3 1 9 5 7 8 7 13 12 10 15 17 19 21 23 25 28 30 32 31 31 32 33 35 34 32 31 29 29 27 23 21 25 26 25 23 21 21 20 18 16 15 13 13 13 12 10 9 9 8 7 6 5 5 6 5 5 5 5 6 7 6 5 4
2 3 10 9 6 4 3 4 4 3 2 1 2 2 2 3 5 7 4 6 4 4 1 2 9 4 3 4 6 12 11 13 23 27 27 29 27 26 29 30 31 31 31 33 34 35 35 33 32 31 30 26 24 24 26 26 25 24 24 22 19 18 17 16 14 14 14 12 10 8 7 7 7 6 4 4 4 5 5 5 4 6 7 7 7 6
1 6 9 4 6 5 2 2 4 0 1 1 3 2 2 4 1 3 5 7 7 3 2 4 6 1 3 1 4 9 8 11 23 28 26 30 30 31 34 34 34 34 33 34 34 33 33 30 31 32 30 27 28 30 29 29 27 26 25 22 20 19 18 16 16 17 15 13 11 9 8 7 6 5 4 3 3 3 4 4 4 4 5 6 6 7
6 10 5 4 6 6 3 2 2 2 3 3 4 4 3 4 3 4 4 6 6 5 4 6 5 4 3 2 5 6 1 4 16 20 18 23 25 26 29 32 35 36 35 37 37 37 35 31 30 31 30 30 33 34 32 30 28 26 24 21 20 20 19 19 19 18 16 14 13 12 11 9 7 6 5 4 4 4 4 4 4 5 5 5 5 5
8 9 3 1 2 5 5 4 4 6 3 4 4 7 7 6 5 3 3 4 5 5 4 4 4 3 4 0 5 4 1 5 10 12 15 20 21 21 25 28 32 33 34 37 38 39 38 33 30 30 31 32 34 34 32 30 27 25 23 22 21 20 21 21 20 18 16 15 13 10 8 8 8 7 5 3 4 5 5 5 5 5 6 6 5 4
5 5 1 4 5 4 5 4 5 7 4 2 5 7 7 5 3 1 4 4 2 1 3 3 5 2 5 3 3 4 5 7 7 7 9 15 19 21 25 28 30 33 33 34 35 37 37 34 31 31 32 34 35 33 31 29 26 24 23 23 23 23 23 23 21 19 17 15 12 8 5 5 5 5 5 5 5 6 5 6 6 6 7 7 6 5
3 4 3 1 2 4 5 4 6 8 7 3 5 5 6 5 4 3 6 5 2 2 3 5 5 3 2 4 5 2 5 5 5 6 6 13 19 20 22 26 29 32 33 33 35 36 37 36 33 32 33 34 34 32 30 28 25 23 23 24 25 25 25 24 21 18 17 14 11 9 7 7 6 6 6 6 7 6 5 5 6 6 7 7 7 5
1 2 3 1 2 3 5 6 7 9 5 6 5 6 5 4 5 3 6 4 1 1 2 6 3 3 3 5 5 2 5 5 8 9 7 13 20 20 21 24 26 29 32 33 35 36 38 38 35 32 32 33 32 31 29 26 22 21 23 25 25 26 25 24 21 18 16 14 11 10 10 10 9 9 8 7 7 6 5 5 5 5 7 7 7 6
3 5 5 4 4 4 7 6 9 11 4 4 5 6 4 5 4 4 5 3 3 3 2 6 3 2 3 5 4 3 3 4 7 8 9 14 21 22 21 23 25 27 30 33 34 35 38 39 35 31 31 31 31 30 28 24 21 20 23 25 25 25 24 23 21 18 17 15 13 12 12 13 12 11 10 8 6 6 5 5 6 6 6 7 8 6
6 5 2 4 5 6 6 4 6 8 5 3 5 5 6 5 5 4 3 4 5 2 5 7 2 3 1 5 3 0 1 4 5 5 7 12 19 22 22 24 27 27 30 33 33 32 35 36 33 30 29 30 30 29 28 25 22 20 22 23 23 24 23 22 20 19 18 17 15 14 14 14 13 12 10 7 5 5 6 6 7 7 6 6 6 6
7 4 2 4 6 4 4 2 2 1 2 5 4 4 4 3 4 4 4 4 4 2 6 6 1 4 2 4 4 4 5 5 5 6 7 10 16 21 22 23 27 27 28 31 31 31 32 33 32 30 29 29 30 30 29 26 23 21 22 22 23 24 23 21 19 19 19 19 18 17 16 14 13 11 9 5 4 5 6 7 7 7 7 6 6 6
4 4 3 5 4 4 5 2 1 4 5 5 5 5 4 1 3 1 2 2 2 3 4 3 1 2 4 5 5 7 7 5 3 3 5 8 15 21 23 24 25 25 27 29 30 32 33 33 33 31 30 29 30 30 28 27 26 25 24 22 22 23 23 21 21 21 21 21 19 18 17 15 13 11 8 5 4 5 6 5 5 6 7 6 6 6
3 5 5 4 4 3 6 5 2 1 1 4 5 5 4 3 2 1 3 1 1 3 3 3 0 0 3 3 5 8 6 3 5 9 6 6 11 16 18 20 21 22 25 28 30 31 32 33 32 31 30 29 30 29 28 29 28 27 26 25 25 26 26 26 25 24 22 21 19 18 17 15 14 13 9 6 6 5 5 5 5 6 6 6 6 6
2 3 3 3 2 2 5 5 6 5 3 2 4 6 4 4 4 3 3 3 2 2 2 3 0 2 1 2 5 6 3 8 16 18 17 15 15 15 14 12 12 15 19 22 24 26 28 30 30 29 29 29 30 29 30 30 30 29 28 28 29 30 30 30 28 25 23 22 20 18 17 16 15 13 10 8 7 6 6 6 6 6 7 7 7 7
4 3 6 5 3 2 2 3 4 7 3 1 2 5 3 4 5 2 2 5 4 2 0 1 2 2 2 3 6 4 4 12 17 19 21 21 20 21 20 16 13 9 11 15 18 21 24 26 28 29 29 30 30 30 31 31 31 31 30 30 32 29 28 29 28 25 24 23 21 19 18 18 16 13 12 10 9 8 8 8 7 7 7 8 8 9
2 4 7 5 3 2 3 3 2 4 2 1 2 3 4 3 7 5 1 1 4 3 1 1 1 1 1 1 5 4 5 8 11 13 16 19 23 23 21 19 15 5 6 12 16 19 21 22 24 26 28 30 31 31 32 32 32 31 30 31 31 26 20 23 25 25 25 24 22 21 19 18 16 14 14 12 10 10 10 10 10 9 9 9 9 10
4 2 6 2 2 2 1 4 4 4 5 4 2 5 2 2 5 5 2 3 5 2 3 2 1 1 2 1 4 5 5 3 5 6 8 14 20 21 19 20 16 12 12 12 14 15 17 17 18 20 22 25 27 28 30 31 31 31 30 30 29 23 16 18 24 28 28 26 24 22 21 19 16 15 15 13 12 13 13 13 12 11 11 10 10 11
4 1 7 2 2 5 6 7 4 5 4 4 4 3 4 2 1 2 3 2 2 2 2 3 1 2 2 2 3 0 3 3 2 2 3 6 9 16 22 25 24 20 16 14 13 12 11 11 11 12 13 16 19 22 25 28 30 30 29 27 24 18 14 15 24 31 30 27 24 22 23 21 17 17 19 18 17 15 14 14 14 13 12 11 11 11
3 3 4 4 2 3 6 5 1 5 5 3 2 3 3 3 4 2 2 3 4 3 2 1 2 2 4 4 4 4 6 6 5 3 3 4 4 9 18 25 25 21 17 14 12 10 8 7 8 8 8 10 12 15 18 21 24 26 25 24 21 17 14 14 23 30 29 29 27 25 27 25 21 20 20 20 20 17 15 15 15 14 12 11 11 11
3 3 3 5 3 2 2 0 3 2 2 3 3 3 2 2 3 2 1 2 4 4 3 2 0 4 5 4 4 6 6 7 9 6 4 7 8 8 12 18 19 17 15 13 11 9 8 7 7 7 7 7 7 9 10 12 14 16 17 17 15 14 15 16 21 25 25 28 29 27 29 29 25 22 20 21 22 19 17 16 15 15 13 12 12 11
2 3 3 1 3 2 2 2 1 3 3 4 3 1 2 3 4 4 1 1 2 4 4 4 3 6 6 3 4 4 4 6 9 9 7 9 13 13 14 16 15 14 14 13 12 11 9 8 8 6 6 6 5 6 6 7 8 9 10 11 11 12 14 15 18 19 20 25 26 25 30 30 26 23 20 21 22 21 20 17 15 14 13 13 13 12
2 4 3 1 0 2 2 2 3 1 5 6 4 2 3 2 3 5 4 3 1 3 3 4 3 5 5 2 2 2 1 5 10 12 11 12 14 15 18 18 16 16 16 15 13 11 10 8 7 6 5 5 4 4 4 5 6 6 7 9 10 11 11 12 14 14 17 21 21 25 31 29 25 23 21 20 21 23 23 19 17 19 17 17 16 15
1 4 3 0 3 3 4 4 4 4 6 6 4 3 3 2 2 5 5 4 3 3 2 4 1 4 5 5 3 3 5 7 10 12 14 16 15 16 19 20 19 18 16 14 12 10 8 7 6 5 4 4 3 3 3 3 4 4 5 7 9 9 10 11 12 13 18 21 22 27 30 27 24 23 22 21 21 23 24 21 20 22 21 20 20 19
1 1 3 3 1 3 3 4 5 5 5 3 3 4 3 3 3 2 1 3 3 3 4 5 2 6 4 5 6 6 7 8 8 11 16 19 18 18 19 20 19 17 15 13 11 9 8 6 5 4 4 3 3 3 3 3 4 5 5 5 6 7 9 11 11 13 18 21 24 28 29 28 26 24 23 23 21 22 24 22 19 20 21 21 21 22
2 2 3 5 4 4 2 2 2 1 2 2 3 6 5 4 5 2 2 4 2 2 3 5 4 5 4 6 7 6 5 6 7 11 15 18 19 19 19 19 17 16 14 13 11 10 8 7 6 5 4 4 3 3 3 3 4 4 5 4 4 5 8 9 10 13 18 21 24 26 27 27 27 24 24 24 21 20 22 22 20 21 23 23 22 23
3 3 2 5 5 5 5 4 3 2 3 1 2 5 5 4 4 4 4 3 3 3 2 1 4 3 3 6 7 6 4 3 5 9 14 17 18 18 16 16 16 15 15 14 13 12 11 9 8 6 5 4 4 4 4 3 3 4 4 4 4 4 7 8 9 13 16 19 22 23 24 26 26 23 22 23 23 22 21 22 23 25 27 27 25 25
4 3 1 5 4 2 4 2 1 4 5 3 1 3 4 3 5 7 4 2 4 5 1 5 1 5 2 6 6 6 5 3 3 2 5 8 11 14 14 14 14 14 15 14 14 14 13 12 10 8 7 6 5 5 5 4 4 4 4 4 4 5 6 7 8 11 13 15 19 20 20 22 25 24 22 23 25 24 22 23 26 27 27 27 27 26
5 1 1 3 5 3 3 4 5 6 5 3 3 3 3 3 5 6 2 1 3 5 4 2 5 6 3 6 6 6 4 4 7 8 5 3 3 6 8 9 11 12 13 14 13 13 13 12 11 10 9 8 7 6 5 4 3 3 4 5 6 6 7 8 8 9 10 11 13 14 14 14 19 22 22 22 23 23 23 24 27 26 24 24 25 25
4 1 1 3 4 5 4 3 7 8 5 4 5 4 3 5 7 7 3 2 6 6 4 7 11 7 3 4 5 5 6 11 15 17 14 12 9 6 5 5 5 6 9 11 12 12 12 12 12 11 10 9 9 7 7 6 4 3 3 4 5 6 7 8 8 8 9 10 10 11 12 12 13 15 18 19 21 22 24 24 24 23 21 21 20 19
3 2 1 3 5 3 4 4 7 9 7 6 6 5 4 7 7 6 4 3 6 6 3 8 11 6 5 6 7 9 15 19 21 22 21 21 17 12 10 8 6 5 4 6 9 11 13 13 13 12 11 10 9 7 7 6 5 5 4 4 5 6 7 7 7 6 7 8 9 9 11 12 12 12 14 16 17 19 19 19 18 17 16 14 11 10
3 2 1 4 4 0 2 3 5 7 8 8 6 7 6 5 5 4 3 3 2 5 5 7 8 2 5 6 8 13 20 22 20 20 22 23 22 20 17 14 10 7 5 5 5 7 11 13 13 13 12 11 9 8 7 6 6 6 6 6 7 7 9 9 8 7 6 6 6 6 7 8 9 10 11 11 11 12 12 13 13 12 11 10 9 9
3 4 2 4 4 2 3 1 3 5 6 3 2 3 3 3 6 5 5 6 3 3 5 4 3 1 4 4 6 11 15 17 17 19 21 21 22 23 22 20 16 12 9 7 6 7 8 10 12 11 10 9 10 10 8 6 6 6 6 7 7 8 9 9 9 9 9 8 7 8 8 8 9 10 11 11 11 11 11 11 11 11 11 10 10 11
3 4 3 2 4 3 5 3 3 3 1 3 4 2 1 4 8 10 6 6 6 5 4 4 3 3 4 5 6 8 10 14 18 21 23 23 23 23 22 22 19 16 13 10 9 10 11 11 12 13 13 10 8 9 9 7 7 7 7 7 7 7 7 7 7 8 9 8 8 8 9 9 10 11 12 11 11 11 11 11 11 10 10 10 10 10
3 4 3 2 4 2 2 5 4 1 3 1 3 3 4 5 11 15 9 6 7 7 5 6 5 5 5 6 9 12 15 17 20 22 22 22 22 22 22 21 19 16 14 13 10 8 7 6 7 9 12 12 9 6 8 7 5 5 8 9 8 8 8 7 7 8 8 8 8 8 8 9 9 10 10 9 9 10 10 10 10 10 10 11 11 11
4 3 2 3 3 2 1 3 2 4 2 2 4 3 4 2 6 11 9 8 7 5 4 5 4 5 7 7 7 10 13 17 21 22 20 19 19 19 19 19 17 15 14 14 12 9 6 4 2 4 3 1 2 5 7 5 3 2 4 7 7 8 9 9 9 9 9 8 8 9 8 8 9 9 9 9 9 9 9 9 10 10 11 12 12 13
6 4 2 2 2 3 3 2 1 0 0 1 3 2 1 2 3 4 5 3 4 5 4 3 3 6 8 8 5 4 3 9 15 17 17 17 16 15 15 15 14 13 11 10 10 9 9 8 6 6 7 7 5 5 6 5 2 0 1 4 6 6 7 9 11 10 10 10 10 10 9 8 9 10 11 11 10 10 10 10 11 11 11 11 11 11
4 3 4 4 2 3 5 3 2 1 3 5 4 4 3 5 4 3 6 2 3 7 6 3 4 6 6 9 8 2 4 3 6 7 12 15 12 11 11 11 11 10 9 8 7 6 7 8 7 6 5 5 4 6 8 8 8 8 6 5 5 4 4 7 9 9 9 10 10 10 10 10 10 11 12 13 12 11 11 10 9 9 9 8 8 9
6 3 3 4 2 3 5 4 3 4 4 5 6 7 10 9 4 3 5 1 3 6 5 6 8 9 8 10 11 6 4 3 1 4 9 11 10 10 9 7 8 8 8 8 8 8 8 7 6 5 4 4 4 3 6 9 11 12 13 12 10 8 7 7 9 9 8 9 9 9 9 11 11 11 12 13 12 12 11 10 8 7 8 9 10 9
7 4 4 4 2 2 4 3 2 3 2 3 5 7 14 9 1 5 2 3 3 2 6 10 11 11 11 12 11 8 5 2 2 5 9 10 10 11 10 9 9 9 9 9 10 11 11 11 10 9 8 7 7 7 7 8 8 8 9 11 13 15 15 15 15 14 13 13 13 12 11 11 11 11 11 12 11 11 11 10 9 8 9 11 12 11
4 3 3 3 3 3 4 4 1 1 2 4 5 9 15 6 5 4 3 6 3 5 7 11 12 10 10 10 9 6 2 0 2 6 9 10 12 12 12 12 12 12 12 13 13 14 14 15 15 15 14 13 12 11 11 10 10 10 8 8 9 12 15 17 18 18 17 17 16 16 15 14 13 13 12 12 11 11 11 11 11 11 11 12 13 12
3 3 3 2 2 3 3 3 2 1 2 7 7 9 12 4 3 1 2 4 6 7 8 10 9 7 7 7 5 4 4 5 7 9 11 13 14 15 16 17 17 17 17 17 17 19 20 20 20 20 20 20 19 17 16 15 15 14 14 13 11 10 11 14 16 17 18 19 19 19 19 18 18 17 16 14 14 13 13 13 13 13 12 12 12 12
1 2 2 2 2 2 3 3 3 2 4 10 7 4 7 3 4 3 4 6 6 7 7 7 6 5 5 5 6 7 9 10 11 12 14 15 17 18 19 20 21 21 22 21 22 22 23 24 25 25 25 25 24 23 21 20 19 18 18 18 17 14 13 13 15 18 19 20 21 22 21 20 20 20 19 18 17 16 16 16 15 15 14 13 13 12
2 1 1 1 1 2 2 1 2 2 5 10 7 4 5 6 6 5 5 5 5 6 5 5 4 3 4 5 7 8 10 12 13 14 16 18 19 20 22 22 23 24 24 24 25 25 24 25 25 25 25 25 25 25 25 24 23 22 21 21 20 20 19 17 16 18 19 20 21 22 21 20 18 18 19 19 18 18 17 17 17 16 16 16 16 16
2 3 5 2 2 2 3 3 4 4 6 13 14 10 9 9 8 6 5 5 4 3 3 2 2 2 3 5 7 9 10 12 14 16 18 19 20 20 22 22 23 24 25 26 26 26 27 28 28 27 27 26 25 25 25 25 26 25 24 22 21 20 20 19 18 18 19 20 22 22 22 22 20 20 20 20 20 20 20 19 18 18 18 19 19 19
3 6 7 5 3 5 7 6 7 7 8 11 12 11 9 8 6 4 3 3 3 2 2 2 3 5 5 7 9 10 12 14 16 17 19 20 21 22 22 23 24 24 25 26 26 27 28 29 29 30 30 29 27 26 25 25 25 26 25 24 22 21 19 18 18 18 19 19 20 22 24 25 24 23 22 22 22 22 22 22 21 20 20 20 20 19
3 4 5 4 3 4 4 4 5 7 8 8 9 9 8 6 4 2 1 1 1 2 4 5 6 8 9 10 12 13 14 16 18 20 21 22 23 24 24 25 25 25 25 24 24 25 26 27 28 29 30 30 30 29 27 26 26 26 25 25 24 23 23 21 20 19 19 19 18 19 21 24 25 25 24 23 22 22 23 23 23 23 22 20 19 18
3 5 4 3 3 2 2 4 6 9 9 8 8 8 6 4 2 1 1 2 3 5 7 8 10 11 13 14 15 16 17 18 19 21 23 23 24 26 26 27 27 27 27 25 24 24 25 26 27 28 28 29 30 30 30 30 29 28 27 26 25 25 25 25 24 23 22 21 20 19 19 20 22 24 24 24 24 23 22 22 23 23 22 20 19 20
3 3 1 3 3 2 1 2 6 7 3 4 7 7 4 3 2 1 1 2 5 6 7 10 11 12 14 15 16 17 18 19 20 22 24 26 27 29 30 30 31 30 30 29 28 27 27 28 29 30 30 31 31 31 32 33 32 31 29 29 28 26 26 26 26 26 26 25 24 23 21 20 20 21 22 24 24 23 22 21 21 21 21 20 20 21
3 1 1 4 4 1 3 3 6 5 2 3 6 5 3 3 1 1 2 3 6 7 8 10 11 12 13 14 15 17 19 21 22 23 25 27 27 28 29 29 31 31 31 31 32 32 31 31 32 33 34 34 33 33 33 33 33 32 30 29 28 27 25 25 25 26 27 28 28 27 25 23 22 21 22 23 24 24 23 22 21 21 21 21 21 20
2 2 3 4 4 3 4 5 5 4 2 5 5 3 2 1 2 4 5 6 7 8 9 11 13 14 14 14 14 16 18 20 21 22 23 24 24 24 25 25 27 29 30 31 32 33 34 34 35 36 37 37 37 36 36 36 35 34 32 31 30 29 28 27 26 26 26 27 27 28 27 26 25 24 23 24 24 24 23 23 22 22 21 20 20 18
Wind_Direction
137 179 253 222 220 218 209 197 201 193 147 176 237 223 249 265 275 271 267 288 266 141 221 191 151 149 171 168 154 161 171 174 169 167 170 177 182 183 185 186 186 187 187 183 185 192 194 192 192 194 196 197 194 192 192 191 191 192 189 185 186 191 196 203 211 219 226 226 223 227 235 239 238 233 234 236 231 228 238 256 271 270 261 255 247 238
78 168 235 225 219 212 190 188 217 237 156 199 228 225 259 249 265 280 281 310 339 110 334 122 127 147 171 159 154 158 169 178 170 171 178 183 186 187 189 189 189 189 186 184 189 193 193 192 194 196 196 197 196 192 189 189 190 192 190 188 190 194 199 208 222 229 229 228 229 235 235 235 240 241 245 258 261 256 255 260 256 243 240 240 236 230
37 236 245 232 207 180 134 136 165 212 211 207 197 174 279 261 281 302 306 322 353 87 344 154 132 142 193 178 179 173 180 189 181 181 183 183 185 190 191 191 190 188 185 186 191 192 192 193 193 191 192 195 195 190 189 191 191 189 188 189 194 198 201 208 219 224 225 225 225 233 233 228 236 238 231 249 268 265 263 263 242 226 227 232 237 236
258 246 238 194 135 154 209 168 144 237 338 196 207 164 272 278 305 299 302 336 355 44 116 126 114 32 330 5 220 209 203 197 189 188 187 185 187 190 192 191 190 188 187 188 192 192 190 191 190 188 189 192 190 186 187 189 188 187 188 191 197 200 201 206 210 213 217 216 210 210 209 210 223 228 228 246 268 266 266 272 261 248 237 233 237 236
242 249 230 111 122 158 205 238 179 245 290 262 222 172 200 262 236 222 285 340 356 6 55 82 59 342 357 89 220 243 259 191 192 189 190 192 193 195 195 193 191 190 188 188 191 192 191 190 189 189 189 189 187 185 187 188 189 190 192 195 199 199 198 202 206 206 204 199 197 196 194 198 205 210 222 241 252 252 255 269 277 279 275 264 251 232
254 262 257 214 184 157 173 231 209 192 229 292 244 199 191 212 237 252 339 18 29 7 2 65 71 305 321 47 211 233 148 166 189 194 196 194 197 203 200 195 194 193 192 192 193 193 191 190 189 189 189 188 187 188 190 192 196 198 200 201 198 195 196 201 203 201 197 195 196 196 195 199 199 198 201 214 241 247 250 256 258 259 260 259 252 236
260 286 337 240 242 163 162 236 227 171 151 291 243 203 176 164 208 282 60 72 79 321 320 55 116 216 315 322 245 241 198 183 187 208 206 194 199 207 202 197 194 194 195 196 196 194 191 188 187 190 191 190 190 192 195 198 203 206 207 203 197 195 198 200 200 198 196 197 200 205 210 209 203 197 189 188 212 225 233 239 238 235 232 236 242 242
253 318 7 259 228 148 162 232 217 155 130 237 231 152 131 135 175 168 95 96 172 213 323 11 97 126 317 275 280 280 183 192 209 218 221 205 208 212 206 199 195 195 196 197 197 195 191 188 190 193 194 194 195 195 199 203 206 211 210 202 196 197 200 200 199 198 198 201 204 209 217 219 217 216 205 194 198 207 213 221 227 228 225 229 234 238
233 286 291 184 144 159 198 214 184 151 148 238 202 135 130 137 149 133 98 93 39 92 317 328 38 95 273 270 307 16 146 197 223 215 218 214 212 212 209 202 196 195 196 197 199 197 193 192 193 197 196 196 198 200 205 208 212 215 209 200 197 201 202 200 199 198 199 205 213 218 222 222 218 217 212 200 195 198 200 205 214 218 225 234 240 242
259 242 229 156 151 205 222 212 166 158 193 225 154 108 69 72 76 72 93 95 32 58 231 286 345 99 272 289 319 18 103 203 229 223 222 217 212 210 208 203 197 196 195 197 200 198 195 193 194 198 198 197 200 205 211 213 217 218 207 200 201 203 202 200 199 199 200 206 217 226 227 225 222 215 206 199 195 192 190 194 197 199 209 223 233 239
288 287 229 160 190 210 209 199 163 169 183 131 96 70 57 41 28 35 54 77 62 15 253 262 289 107 249 285 276 224 168 218 228 232 226 216 213 209 204 202 201 198 194 195 199 200 195 194 197 200 200 200 203 208 213 216 219 219 209 201 201 199 197 197 199 202 204 209 218 227 227 227 230 221 205 201 206 198 189 186 183 182 187 193 204 217
324 323 267 238 222 186 139 140 132 57 64 92 80 74 91 22 9 27 357 40 87 255 259 257 332 95 178 267 279 263 265 249 215 211 215 202 202 204 199 200 201 199 196 196 199 200 198 197 199 200 202 204 206 209 214 216 215 210 202 195 192 192 193 198 205 209 210 213 217 222 224 226 231 225 209 207 219 208 194 183 175 174 175 173 172 183
310 256 283 303 253 160 117 125 337 10 33 85 92 82 99 43 13 26 312 356 140 231 256 252 85 102 219 248 288 298 299 289 222 194 220 198 188 192 194 197 199 197 196 198 201 201 201 202 202 204 206 208 211 214 215 212 208 206 204 202 198 199 201 205 214 218 216 217 220 222 224 224 224 218 204 199 210 205 196 184 169 166 166 164 154 145
292 298 319 323 281 190 140 143 201 263 77 129 131 122 127 104 85 227 262 305 214 234 271 292 164 170 274 286 322 321 313 324 78 90 109 148 160 171 181 188 192 193 194 200 203 203 204 206 208 211 212 214 218 219 216 213 212 215 217 217 213 212 211 210 214 218 217 219 224 227 229 227 218 207 194 188 197 196 190 179 163 156 155 155 145 129
152 313 282 204 248 206 167 171 169 155 142 179 158 134 143 151 147 199 217 179 197 220 278 304 233 154 212 300 320 320 3 65 73 84 97 103 115 128 136 147 162 175 185 196 204 205 208 211 213 217 218 220 223 222 220 218 220 223 224 224 221 218 217 215 213 214 217 220 225 227 230 228 215 200 189 185 188 190 184 175 168 161 154 155 152 140
135 241 253 253 264 168 192 233 147 116 101 256 127 107 148 185 148 131 174 171 168 141 137 254 211 192 202 288 316 330 64 75 79 85 91 96 105 111 110 102 93 111 163 190 205 211 215 215 216 219 221 223 225 224 223 223 227 229 229 231 226 217 217 216 212 212 213 217 222 223 223 221 210 196 192 192 191 192 188 182 181 175 167 168 165 154
117 254 276 314 332 142 176 228 132 109 157 212 107 155 216 178 120 108 143 85 79 106 232 229 171 322 16 323 324 4 50 62 76 88 96 103 110 111 110 104 95 96 191 193 203 212 218 220 221 222 224 226 226 225 224 226 231 232 235 236 222 206 210 219 216 212 209 211 216 216 213 211 207 199 199 201 199 198 196 193 193 192 187 182 176 168
143 246 288 340 55 341 63 113 69 66 120 125 182 196 187 80 90 101 105 21 47 127 269 327 154 206 103 153 316 19 64 44 40 74 101 110 118 122 122 125 143 193 207 187 189 201 210 218 224 226 229 230 230 230 227 226 231 233 235 236 222 208 217 229 222 216 212 212 212 208 204 202 205 206 203 206 209 206 204 201 198 197 194 190 186 181
124 148 290 283 171 316 12 74 42 351 64 119 190 178 102 103 140 89 118 124 105 170 276 340 326 218 174 208 281 46 164 175 56 56 97 100 116 130 135 145 161 180 182 173 176 184 194 203 212 218 224 226 226 229 228 228 231 233 234 237 236 236 245 240 223 217 216 215 209 206 204 202 206 210 206 206 210 211 212 210 204 199 195 194 194 188
92 131 267 284 239 314 11 54 43 319 346 36 43 18 49 126 158 155 141 144 142 161 215 335 6 265 226 215 213 221 219 186 158 171 162 133 132 141 146 151 157 162 164 167 170 176 184 187 195 200 204 209 210 213 220 224 230 236 238 241 249 254 254 241 221 217 218 216 216 215 210 207 208 210 209 208 210 214 218 219 215 208 202 200 198 192
58 113 209 284 327 31 20 11 171 195 321 17 32 5 5 70 116 140 97 96 128 140 169 158 85 270 254 207 201 229 228 192 171 174 169 146 144 149 146 144 147 153 159 163 169 178 182 177 180 182 179 185 188 189 197 206 215 226 232 236 242 241 238 234 227 227 226 224 229 226 213 211 211 211 213 211 211 215 216 221 226 220 215 214 213 209
97 130 170 291 11 77 203 259 210 190 155 124 109 85 138 132 123 123 115 309 96 125 162 154 168 261 263 199 205 234 223 197 174 160 154 151 149 149 146 142 145 153 156 158 163 167 171 171 170 172 171 172 173 176 180 186 196 208 221 230 234 235 236 237 240 243 235 230 233 223 210 211 213 213 216 212 212 216 214 220 229 227 230 232 229 230
137 107 102 101 47 197 231 344 22 100 112 101 90 102 130 126 107 122 172 228 80 96 146 119 129 252 269 269 258 266 192 175 167 159 150 149 155 152 147 146 151 157 156 154 153 154 159 163 164 166 170 170 174 181 183 189 196 203 222 235 238 239 238 240 244 242 231 228 223 207 205 212 214 214 217 212 211 215 215 218 223 226 235 238 237 242
69 84 90 18 311 322 316 334 11 49 68 65 34 37 77 63 110 143 173 179 128 139 148 91 100 252 283 324 344 91 112 124 144 154 147 144 152 152 148 152 159 160 154 147 146 149 152 157 159 159 161 163 172 190 201 209 213 217 227 232 236 238 238 242 240 227 221 222 213 202 204 212 214 215 217 212 208 211 215 219 223 227 233 236 238 241
22 96 104 99 35 3 348 337 353 9 32 55 351 339 16 56 67 109 122 79 105 174 153 118 181 254 288 351 24 71 97 101 116 142 148 147 151 153 153 157 160 158 151 145 146 147 148 154 160 161 163 165 170 195 224 234 243 251 245 232 231 235 240 242 232 215 215 217 214 209 208 210 214 217 216 213 209 212 218 224 228 232 234 236 239 240
108 124 109 122 153 170 175 235 252 294 2 21 345 343 3 40 51 81 93 71 111 183 117 126 191 247 319 8 21 38 75 95 109 136 149 152 153 156 156 156 155 151 146 143 143 147 153 159 163 166 167 167 169 186 211 221 230 238 237 233 233 237 241 237 214 205 212 216 216 216 212 209 212 215 217 218 217 219 224 227 231 236 236 236 240 242
105 76 96 127 144 176 180 199 213 142 91 77 318 345 349 2 51 85 91 100 168 146 80 221 195 146 25 359 358 347 358 80 124 146 156 160 161 162 159 155 152 146 141 138 136 139 147 154 163 170 169 170 170 167 171 182 192 207 221 223 219 227 239 231 206 204 214 218 218 219 216 213 212 214 222 227 227 225 225 226 230 236 235 235 240 244
95 44 45 99 84 152 160 135 89 90 99 134 144 17 351 358 61 81 91 146 149 118 93 277 247 103 35 343 344 321 321 2 22 59 147 166 167 167 165 159 153 147 143 140 138 139 142 146 152 155 155 158 159 157 159 167 176 189 205 207 203 213 227 226 219 218 218 218 219 218 218 218 217 218 225 230 230 229 228 229 233 238 239 239 242 247
108 63 238 88 59 54 82 97 101 88 77 78 67 30 3 28 77 95 95 277 123 133 189 206 83 75 4 345 346 325 339 46 45 42 66 101 131 155 160 158 157 158 157 154 150 148 147 148 149 148 148 147 145 145 147 155 175 195 206 206 201 201 208 215 224 227 223 223 223 220 220 221 220 222 226 229 229 229 231 234 236 240 247 248 249 252
118 132 207 115 82 57 45 87 109 102 91 61 39 17 43 68 78 86 72 40 88 106 144 114 89 66 356 340 343 356 46 69 65 60 60 59 60 82 101 107 130 157 172 175 172 166 161 158 157 155 152 149 146 143 137 136 144 162 200 219 216 211 211 212 216 221 224 230 233 231 230 228 224 225 228 229 229 230 233 236 236 240 248 251 252 255
98 134 196 98 85 42 17 55 96 106 110 82 45 15 48 72 58 50 42 40 75 90 105 98 87 58 3 0 10 40 61 63 57 51 48 49 55 66 74 74 82 104 138 171 183 183 179 171 165 163 160 154 150 147 143 140 140 146 163 192 208 216 221 221 221 224 225 227 228 227 225 222 219 220 220 219 223 228 230 230 230 234 241 243 245 249
72 113 52 65 91 233 351 64 102 101 89 72 41 4 14 59 69 54 32 17 93 136 114 84 87 60 320 350 27 50 57 55 48 42 44 49 54 58 60 60 66 82 103 127 153 176 184 180 173 169 168 166 161 152 146 146 148 151 161 170 177 195 208 210 208 208 206 204 200 193 189 193 196 196 195 195 199 207 211 213 215 218 222 226 228 228
77 120 117 85 118 228 303 27 112 85 69 46 324 334 7 92 110 91 42 15 25 112 116 107 124 209 308 357 46 54 54 54 49 44 45 49 54 59 61 62 66 74 89 104 109 117 139 153 155 153 156 165 171 166 155 152 157 156 158 168 174 179 187 193 193 193 194 189 182 173 168 172 174 173 176 180 182 187 192 196 202 207 210 216 220 223
53 99 123 111 127 212 285 338 51 66 115 249 276 280 171 137 111 95 59 13 17 45 95 119 93 41 17 37 71 76 71 68 62 57 54 52 54 59 62 65 71 79 85 93 105 110 107 106 114 119 113 110 134 161 163 160 166 174 174 175 180 180 182 195 204 202 198 195 192 186 181 183 183 180 183 186 188 192 197 200 206 213 218 222 226 230
73 86 114 95 106 161 305 30 50 244 217 241 347 55 111 119 103 94 74 28 25 34 54 63 45 30 43 67 89 89 81 74 66 59 56 53 52 55 56 57 62 71 76 78 85 101 104 100 112 114 104 93 90 120 150 148 141 174 191 189 190 196 201 211 220 213 207 208 210 208 206 203 198 196 202 206 206 206 208 213 218 224 231 237 243 247
124 115 130 105 104 145 80 69 139 224 239 5 353 34 91 69 69 80 62 19 11 14 37 58 36 24 49 74 105 100 80 70 63 56 54 55 53 52 51 49 52 59 62 57 55 58 57 45 324 296 300 323 95 125 150 154 107 108 197 204 205 210 212 214 218 218 216 216 215 215 218 221 219 219 222 222 219 217 219 227 236 245 253 257 258 260
138 127 132 127 141 146 116 97 129 127 335 275 309 339 107 309 320 97 98 27 355 0 14 47 24 18 39 54 81 147 119 61 53 46 44 51 52 50 49 49 53 60 59 53 54 56 52 44 24 340 314 297 274 223 196 199 210 176 190 198 197 205 213 213 214 218 219 217 214 216 223 229 231 233 233 231 228 228 232 242 251 257 260 260 260 261
118 149 168 170 186 117 103 99 91 119 211 226 254 281 305 307 278 160 117 89 347 2 15 61 52 34 41 41 42 157 184 56 30 14 25 35 37 38 42 44 44 45 42 39 40 43 44 44 43 35 9 347 312 260 244 249 260 264 259 238 208 202 224 222 213 211 211 208 209 215 222 228 230 234 238 237 234 234 240 248 253 253 253 255 259 259
47 59 122 129 146 119 117 135 164 184 221 244 251 282 318 321 279 134 88 45 316 4 45 91 76 56 59 50 42 64 104 89 280 320 5 16 12 11 13 11 12 10 7 6 0 356 359 3 8 4 349 357 1 311 276 267 265 265 265 263 254 250 260 250 224 209 205 208 212 215 220 225 230 233 234 233 232 235 245 256 258 257 264 273 279 277
29 25 51 90 121 129 127 130 152 183 230 259 247 299 332 335 145 117 102 244 261 30 78 92 81 67 67 64 56 62 84 133 234 315 348 350 346 347 343 337 337 330 326 329 323 319 320 319 316 313 312 319 328 325 313 296 284 280 277 275 266 257 258 255 245 243 246 244 239 235 231 228 225 225 225 227 229 233 239 246 249 254 266 276 282 283
17 18 47 98 93 71 105 108 80 198 256 293 290 333 347 355 135 131 217 220 165 98 88 80 74 65 57 57 61 67 76 68 297 316 328 329 325 323 320 318 318 314 311 310 306 305 304 301 299 298 298 300 302 303 301 294 290 285 277 274 269 260 257 254 250 250 254 254 250 246 242 235 230 229 230 232 236 239 238 239 245 255 267 274 277 281
12 6 18 68 62 47 97 100 80 170 338 331 318 346 7 25 172 171 185 153 105 96 89 73 70 60 40 32 30 9 334 326 320 313 316 317 313 311 309 307 306 304 301 299 298 300 298 297 297 295 291 289 287 287 289 286 283 280 274 267 262 256 252 247 243 244 248 252 253 252 250 246 242 242 243 243 244 244 244 248 254 260 265 268 272 280
47 42 28 33 42 57 79 75 104 166 337 342 326 340 19 50 180 161 109 96 78 75 74 69 66 49 17 351 339 330 319 317 315 309 308 306 303 302 302 302 303 302 301 298 296 296 296 296 295 294 292 289 283 279 281 282 281 279 277 273 269 261 255 251 248 247 247 248 249 250 251 250 249 247 247 248 249 250 251 254 257 258 262 267 271 278
14 79 146 299 348 80 105 75 129 183 359 25 58 88 58 78 122 121 92 78 63 52 49 53 55 31 356 333 324 318 312 310 307 305 304 302 300 299 296 296 297 298 299 299 298 297 298 297 295 293 292 290 286 280 277 278 280 280 278 277 276 270 265 263 260 255 251 248 246 244 243 244 246 247 247 247 248 249 251 252 252 255 262 267 271 276
17 105 118 89 34 81 101 122 141 132 65 64 79 93 92 93 100 99 92 88 79 56 29 32 33 350 322 312 306 304 306 305 303 302 302 300 299 299 297 296 295 295 295 296 294 294 294 292 292 292 289 288 289 287 282 278 278 278 276 275 275 271 267 263 258 255 254 252 248 243 240 240 242 244 246 247 248 249 251 252 253 257 260 264 270 276
77 103 102 98 99 76 70 96 128 120 92 85 91 99 105 107 106 103 101 96 82 57 359 341 329 317 313 310 305 303 303 301 298 298 298 297 296 296 296 295 295 295 295 294 293 293 292 290 290 289 288 287 287 289 289 286 281 278 275 271 268 265 261 255 249 246 247 249 250 248 245 243 242 241 242 244 247 249 252 254 256 258 260 264 269 272
26 65 79 103 124 102 91 124 144 125 106 103 107 111 113 114 110 100 63 18 358 316 312 313 312 309 308 306 303 302 301 300 300 299 297 297 297 297 296 296 295 294 293 292 291 290 288 287 286 286 286 286 285 286 288 288 285 283 280 275 270 263 259 257 253 247 242 241 243 245 243 241 240 239 238 239 241 244 248 251 253 257 262 264 263 264
353 30 65 97 91 102 168 183 155 131 111 103 118 129 129 124 130 190 276 305 305 299 300 303 303 303 303 302 302 302 301 301 301 301 301 300 300 299 298 296 295 293 290 289 286 284 281 280 279 279 280 280 282 285 285 284 284 284 283 282 278 271 265 261 260 258 252 245 241 240 240 240 238 237 237 237 238 240 243 247 250 254 258 258 258 262
334 0 75 102 67 38 310 172 148 142 118 104 128 134 128 134 156 214 259 289 301 303 304 306 306 307 307 306 304 303 302 302 303 304 304 303 301 301 300 297 295 292 289 286 283 280 278 277 276 276 276 276 278 281 281 280 280 281 281 282 282 279 273 267 262 261 259 256 250 246 244 242 240 239 239 240 239 238 240 242 243 246 249 252 256 261
26 63 128 86 77 272 251 172 150 165 220 170 144 132 123 142 165 322 320 314 321 323 322 321 320 318 316 312 310 309 307 306 305 304 303 302 302 301 300 299 297 293 290 286 283 280 277 276 275 275 274 275 276 276 276 276 277 277 277 278 278 278 275 270 263 259 258 259 259 256 253 250 247 244 243 242 241 240 239 237 237 240 245 250 255 262
74 166 171 130 139 206 217 179 163 167 157 142 139 129 121 132 323 330 333 335 337 336 332 330 328 326 324 321 319 316 312 308 308 307 305 303 302 302 302 301 299 295 291 288 286 284 281 279 276 275 273 273 274 273 272 272 272 272 272 272 273 272 271 268 263 257 253 254 256 258 258 256 254 251 249 247 245 243 242 241 242 245 250 256 261 265